Location: Bratsk-Energetik
(56.3300°N, 101.7600°E)
Time: 22:08:27
(UTC+08:00)

ISS - Pass Details

Date: 07 May 2021
Orbit: 417 x 422 km, 51.6° (Epoch: 12 June)

Event Time Altitude Azimuth Distance (km) Brightness Sun altitude
Exits shadow 03:22:25 20° 207° (SSW) 1,038 -2.4 -11.8°
Maximum altitude 03:23:56 29° 164° (SSE) 813 -2.7 -11.7°
Drops below altitude 10° 03:26:54 10° 103° (ESE) 1,510 -0.7 -11.4°
Sets 03:29:10 0° 91° (E) 2,377 0.6 -11.3°
